[[{"header":{"parameterUnit":"m.s-1","parameterCategory":2,"la1":30.2992,"la2":30.254,"lo1":-89.0895,"lo2":-89.0443,"dy":0.0025,"dx":0.0025,"nx":19,"ny":19,"refTime":"2026-04-10T03:00:00:Z","depth":"0","parameterNumber":2,"parameterNumberName":"U-component_of_CURRENTS"},"data":[0,0,0,-0.2955,-0.2956,-0.2968,-0.2968,-0.289,-0.2889,0,0,0,0,0,0,0,0,0,0,0,-0.2951,-0.2951,-0.2955,-0.2956,-0.2968,-0.2968,-0.289,-0.2889,0,0,0,0,0,0,0,0,0,0,0,-0.295,-0.2951,-0.2952,-0.2956,-0.2969,-0.2968,-0.289,-0.2898,0,0,0,0,0,0,0,0,0,0,-0.2895,-0.2882,-0.2951,-0.2952,-0.2957,-0.2969,-0.2968,-0.2899,-0.2897,-0.2865,0,-0.289,0,-0.2898,-0.2884,-0.2884,0,0,0,-0.293,-0.2884,-0.2924,-0.2952,-0.2957,-0.2969,-0.2955,-0.2899,-0.2897,-0.2863,-0.2889,-0.2887,-0.2897,-0.2884,-0.2883,-0.2943,-0.2944,0,0,-0.2929,-0.2908,-0.2926,-0.2924,-0.2988,-0.2955,-0.2956,-0.2898,-0.2883,-0.2889,-0.2886,-0.2895,-0.2883,-0.2883,-0.2942,-0.2943,0,0,0,-0.2945,-0.2907,-0.2949,-0.2927,-0.2942,-0.2956,-0.2957,-0.2885,-0.2912,-0.2885,-0.2894,-0.2883,-0.2882,-0.2941,-0.2943,-0.3021,0,0,0,-0.2943,-0.2919,-0.295,-0.293,-0.2945,-0.2919,-0.2945,-0.2915,-0.2909,-0.2895,-0.2883,-0.2881,-0.2939,-0.2942,-0.3016,-0.3032,0,0,0,-0.2945,-0.2917,-0.2937,-0.293,-0.2952,-0.2921,-0.2941,-0.2914,-0.2915,-0.2884,-0.2881,-0.2938,-0.2941,-0.3011,-0.3025,-0.292,0,0,0,-0.2896,-0.2918,-0.2936,-0.2967,-0.2953,-0.3006,-0.2942,-0.295,-0.2933,-0.2882,-0.2939,-0.2942,-0.301,-0.3021,-0.2918,-0.2714,-0.2704,0,0,-0.2899,-0.2917,-0.2943,-0.2961,-0.3034,-0.3001,-0.306,-0.3008,-0.2966,-0.2943,-0.2945,-0.3018,-0.3024,-0.292,-0.2881,-0.2865,0,0,0,-0.2929,-0.2955,-0.2978,-0.3027,-0.3067,-0.3116,-0.3081,-0.3075,-0.3071,-0.2976,-0.3055,-0.3057,-0.2986,-0.2862,-0.2852,-0.2835,-0.2956,-0.2955,-0.2955,-0.2921,-0.2973,-0.3033,-0.3111,-0.315,-0.3191,-0.3201,-0.3193,-0.3146,-0.318,-0.3149,-0.3165,-0.3043,-0.303,-0.3021,-0.3192,-0.3192,-0.3192,-0.3192,-0.2964,-0.2996,-0.3094,-0.3162,-0.3246,-0.3296,-0.333,-0.3309,-0.3263,-0.3274,-0.3199,-0.2991,-0.3022,-0.3016,-0.3198,-0.3197,-0.3196,-0.3196,-0.3195,-0.2926,-0.295,-0.3023,-0.3165,-0.3275,-0.3357,-0.3336,-0.3368,-0.331,-0.3281,-0.3024,-0.3019,-0.2974,-0.3206,-0.3206,-0.3206,-0.3205,-0.3205,-0.3205,-0.284,-0.2922,-0.2993,-0.3165,-0.3236,-0.3306,-0.3328,-0.3236,-0.3116,-0.3074,-0.307,-0.2987,-0.3166,-0.312,-0.32,-0.3201,-0.3201,-0.3202,-0.3202,-0.2757,-0.2807,-0.2894,-0.2974,-0.3106,-0.3012,-0.3096,-0.2865,-0.2811,-0.2692,-0.2767,-0.2913,-0.283,-0.2837,-0.2782,-0.2769,-0.2769,-0.2769,-0.2769,-0.2678,-0.2727,-0.2771,-0.2816,-0.2846,-0.2832,-0.25,-0.2447,-0.2467,-0.2487,-0.2589,-0.2589,-0.2607,-0.2514,-0.2528,-0.2468,-0.2377,-0.2377,-0.2377,-0.2641,-0.2657,-0.2626,-0.2668,-0.2684,-0.2492,-0.215,-0.2126,-0.2278,-0.2371,-0.2616,-0.2632,-0.2653,-0.2682,-0.2553,-0.2574,-0.2481,0,0]},{"header":{"parameterUnit":"m.s-1","parameterCategory":2,"la1":30.2992,"la2":30.254,"lo1":-89.0895,"lo2":-89.0443,"dy":0.0025,"dx":0.0025,"nx":19,"ny":19,"refTime":"2026-04-10T03:00:00:Z","depth":"0","parameterNumber":3,"parameterNumberName":"V-component_of_CURRENTS"},"data":[0,0,0,-0.061,-0.0605,-0.0369,-0.0367,-0.0077,-0.0075,0,0,0,0,0,0,0,0,0,0,0,-0.0712,-0.0711,-0.061,-0.0605,-0.0369,-0.0367,-0.0077,-0.0075,0,0,0,0,0,0,0,0,0,0,0,-0.0712,-0.0711,-0.071,-0.0604,-0.0369,-0.0367,-0.0078,-0.0248,0,0,0,0,0,0,0,0,0,0,-0.0474,-0.0576,-0.0711,-0.071,-0.0603,-0.0369,-0.0367,-0.0255,-0.0237,-0.0195,0,-0.0186,0,-0.0124,-0.0058,-0.0057,0,0,0,-0.0581,-0.0592,-0.0527,-0.071,-0.0601,-0.037,-0.0469,-0.0245,-0.0224,-0.0171,-0.0181,-0.0169,-0.0119,-0.0056,-0.0055,0.0128,0.0128,0,0,-0.0594,-0.0657,-0.0542,-0.0516,-0.0574,-0.0476,-0.0462,-0.0232,-0.0226,-0.018,-0.0162,-0.0115,-0.0054,-0.0052,0.0128,0.0128,0,0,0,-0.0648,-0.0667,-0.0607,-0.0529,-0.0485,-0.047,-0.0453,-0.0236,-0.0217,-0.0158,-0.0111,-0.0053,-0.005,0.0128,0.0128,0.0016,0,0,0,-0.0654,-0.0699,-0.0614,-0.0647,-0.049,-0.0355,-0.0463,-0.0234,-0.0205,-0.0113,-0.0053,-0.0047,0.0128,0.0128,0.0019,-0.0049,0,0,0,-0.0716,-0.0704,-0.0689,-0.0652,-0.0557,-0.0358,-0.0323,-0.0226,-0.0177,-0.0057,-0.0047,0.0128,0.0128,0.0021,-0.0044,-0.0005,0,0,0,-0.077,-0.0756,-0.0691,-0.0659,-0.056,-0.0428,-0.0324,-0.0208,-0.0114,-0.0052,0.0128,0.0128,0.0022,-0.004,-0.0003,0.0043,0.0037,0,0,-0.0778,-0.0759,-0.0738,-0.0673,-0.0593,-0.0457,-0.0358,-0.0198,-0.0094,0.0056,0.0061,0.0018,-0.0043,-0.0004,0.0057,0.005,0,0,0,-0.0756,-0.0752,-0.0714,-0.0655,-0.0541,-0.0448,-0.0278,-0.0196,-0.0056,-0.0039,0.0055,0.002,0.0048,0.0081,0.0076,0.0344,0.0129,0.0129,0.0129,-0.0842,-0.0781,-0.076,-0.0678,-0.0598,-0.0423,-0.0334,-0.019,-0.0088,-0.0048,-0.0044,-0.0058,-0.0025,-0.0028,0.0247,-0.0,-0.0001,-0.0001,-0.0001,-0.0899,-0.0899,-0.0829,-0.0792,-0.0685,-0.0596,-0.0387,-0.0298,-0.015,-0.0094,-0.0059,-0.0006,-0.004,0.0256,-0.0008,-0.0007,-0.0006,-0.0005,-0.0005,-0.0984,-0.0979,-0.0958,-0.0934,-0.0869,-0.0721,-0.0628,-0.0454,-0.0267,-0.0236,-0.0113,-0.011,0.0132,-0.0194,-0.0194,-0.0194,-0.0194,-0.0195,-0.0195,-0.109,-0.1065,-0.112,-0.1081,-0.1075,-0.0995,-0.0764,-0.063,-0.0379,-0.0229,-0.0226,0.0171,-0.0115,-0.0129,-0.0197,-0.0196,-0.0196,-0.0196,-0.0196,-0.1178,-0.1203,-0.1286,-0.1313,-0.1283,-0.1224,-0.1005,-0.0669,-0.0487,-0.035,0.0159,-0.0177,-0.0122,-0.0116,-0.0127,-0.019,-0.019,-0.019,-0.019,-0.1271,-0.1282,-0.1424,-0.1485,-0.1477,-0.1323,-0.111,-0.0721,-0.0116,0.0212,0.0313,0.0392,0.0379,0.047,0.0463,0.0468,0.0557,0.0559,0.056,-0.1349,-0.139,-0.1505,-0.1562,-0.1556,-0.1396,-0.1164,-0.0691,0.0204,0.0619,0.0679,0.0647,0.079,0.0749,0.0913,0.0882,0.0896,0,0]}],[{"header":{"parameterUnit":"m.s-1","parameterCategory":2,"la1":30.2992,"la2":30.254,"lo1":-89.0895,"lo2":-89.0443,"dy":0.0025,"dx":0.0025,"nx":19,"ny":19,"refTime":"2026-04-10T03:00:00:Z","depth":"2","parameterNumber":2,"parameterNumberName":"U-component_of_CURRENTS"},"data":[0,0,0,-0.1987,-0.1998,-0.2405,-0.2405,-0.2448,-0.2448,0,0,0,0,0,0,0,0,0,0,0,-0.1813,-0.1818,-0.1986,-0.1999,-0.2405,-0.2405,-0.2448,-0.2448,0,0,0,0,0,0,0,0,0,0,0,-0.1811,-0.1816,-0.1822,-0.2001,-0.2405,-0.2405,-0.2448,-0.2239,0,0,0,0,0,0,0,0,0,0,-0.1895,-0.1856,-0.1815,-0.1822,-0.2005,-0.2404,-0.2405,-0.2233,-0.2252,-0.2156,0,-0.2285,0,-0.2414,-0.2448,-0.2448,0,0,0,-0.1911,-0.1842,-0.1955,-0.1823,-0.201,-0.2404,-0.2197,-0.2247,-0.2267,-0.2179,-0.2287,-0.2294,-0.2415,-0.2448,-0.2448,-0.2604,-0.2605,0,0,-0.1889,-0.1858,-0.1943,-0.1971,-0.2192,-0.2185,-0.2211,-0.2264,-0.2303,-0.2288,-0.2298,-0.2416,-0.2448,-0.2448,-0.2602,-0.2604,0,0,0,-0.1884,-0.1842,-0.1962,-0.1964,-0.2104,-0.2199,-0.2228,-0.23,-0.2346,-0.23,-0.2416,-0.2448,-0.2448,-0.26,-0.2603,-0.2706,0,0,0,-0.1866,-0.1847,-0.1953,-0.1933,-0.2108,-0.2283,-0.2263,-0.234,-0.2354,-0.2416,-0.2448,-0.2449,-0.2598,-0.2602,-0.2699,-0.2737,0,0,0,-0.1781,-0.1838,-0.191,-0.1932,-0.2154,-0.2287,-0.2334,-0.2347,-0.2426,-0.2448,-0.2449,-0.2597,-0.2601,-0.2693,-0.2728,-0.2606,0,0,0,-0.1691,-0.1887,-0.1911,-0.2126,-0.2152,-0.2364,-0.2336,-0.2494,-0.2533,-0.2448,-0.2599,-0.2603,-0.2691,-0.2722,-0.2603,-0.2389,-0.2384,0,0,-0.1881,-0.191,-0.2021,-0.2055,-0.2255,-0.2297,-0.2503,-0.2562,-0.2546,-0.2526,-0.2534,-0.2701,-0.2727,-0.2606,-0.2621,-0.2608,0,0,0,-0.2038,-0.2111,-0.2176,-0.2306,-0.2429,-0.2556,-0.2629,-0.2677,-0.2753,-0.2615,-0.2754,-0.2768,-0.2685,-0.2554,-0.2547,-0.2622,-0.2621,-0.2621,-0.262,-0.2125,-0.2187,-0.2338,-0.243,-0.2563,-0.2736,-0.2813,-0.2884,-0.2841,-0.2928,-0.2892,-0.2931,-0.2803,-0.2791,-0.294,-0.2941,-0.2941,-0.2942,-0.2942,-0.2302,-0.2375,-0.2434,-0.261,-0.2701,-0.2866,-0.3011,-0.3041,-0.3039,-0.3066,-0.2977,-0.2724,-0.2787,-0.2951,-0.2949,-0.2948,-0.2947,-0.2946,-0.2946,-0.2278,-0.2343,-0.2439,-0.2643,-0.2818,-0.2979,-0.3064,-0.3163,-0.3121,-0.3093,-0.2809,-0.2804,-0.2882,-0.301,-0.301,-0.301,-0.3009,-0.3009,-0.3009,-0.2245,-0.2358,-0.2413,-0.2666,-0.277,-0.2925,-0.308,-0.3013,-0.2931,-0.2898,-0.2893,-0.295,-0.2948,-0.2884,-0.3005,-0.3005,-0.3006,-0.3006,-0.3007,-0.2278,-0.2282,-0.2397,-0.2476,-0.2637,-0.2649,-0.2826,-0.2663,-0.2613,-0.2503,-0.2712,-0.272,-0.2623,-0.2627,-0.2555,-0.2582,-0.2582,-0.2582,-0.2582,-0.221,-0.2245,-0.2254,-0.229,-0.2343,-0.2469,-0.2215,-0.2153,-0.2221,-0.2244,-0.2259,-0.2243,-0.2266,-0.2148,-0.2164,-0.2081,-0.1986,-0.1985,-0.1984,-0.2171,-0.2206,-0.21,-0.2105,-0.2172,-0.2116,-0.185,-0.1704,-0.1756,-0.1965,-0.22,-0.2534,-0.255,-0.2571,-0.2421,-0.2435,-0.2315,0,0]},{"header":{"parameterUnit":"m.s-1","parameterCategory":2,"la1":30.2992,"la2":30.254,"lo1":-89.0895,"lo2":-89.0443,"dy":0.0025,"dx":0.0025,"nx":19,"ny":19,"refTime":"2026-04-10T03:00:00:Z","depth":"2","parameterNumber":3,"parameterNumberName":"V-component_of_CURRENTS"},"data":[0,0,0,-0.0596,-0.0593,-0.0375,-0.0374,-0.0056,-0.0053,0,0,0,0,0,0,0,0,0,0,0,-0.0675,-0.0674,-0.0597,-0.0593,-0.0375,-0.0374,-0.0056,-0.0053,0,0,0,0,0,0,0,0,0,0,0,-0.0675,-0.0674,-0.0674,-0.0592,-0.0375,-0.0374,-0.0057,-0.0222,0,0,0,0,0,0,0,0,0,0,-0.0434,-0.0516,-0.0675,-0.0674,-0.0591,-0.0376,-0.0373,-0.0229,-0.0211,-0.0155,0,-0.0149,0,-0.0108,-0.0035,-0.0034,0,0,0,-0.0554,-0.0531,-0.049,-0.0674,-0.059,-0.0376,-0.0462,-0.0219,-0.0199,-0.0131,-0.0144,-0.0132,-0.0102,-0.0033,-0.0031,0.0158,0.0158,0,0,-0.0566,-0.0606,-0.0505,-0.0478,-0.0566,-0.047,-0.0456,-0.0207,-0.0189,-0.0143,-0.0124,-0.0097,-0.0031,-0.0029,0.0158,0.0158,0,0,0,-0.0626,-0.0614,-0.0578,-0.0491,-0.0463,-0.0464,-0.0448,-0.0199,-0.0193,-0.0121,-0.0093,-0.0029,-0.0026,0.0158,0.0158,0.0053,0,0,0,-0.0632,-0.0653,-0.0585,-0.0601,-0.0469,-0.0331,-0.0446,-0.021,-0.0181,-0.0095,-0.0029,-0.0023,0.0158,0.0158,0.0055,-0.0019,0,0,0,-0.0679,-0.0656,-0.0646,-0.0605,-0.053,-0.0335,-0.0311,-0.0202,-0.0165,-0.0033,-0.0023,0.0158,0.0158,0.0058,-0.0013,0.0021,0,0,0,-0.0704,-0.0696,-0.0648,-0.0619,-0.0533,-0.0416,-0.0312,-0.0202,-0.0101,-0.0028,0.0158,0.0158,0.0059,-0.001,0.0023,0.0062,0.0055,0,0,-0.0711,-0.0698,-0.068,-0.0632,-0.0563,-0.0441,-0.0342,-0.0179,-0.0078,0.0086,0.0091,0.0054,-0.0013,0.0021,0.0062,0.0054,0,0,0,-0.0693,-0.0693,-0.0656,-0.0607,-0.0507,-0.042,-0.0257,-0.0178,-0.0037,-0.0024,0.0084,0.0045,0.007,0.01,0.0094,0.0158,0.0158,0.0158,0.0158,-0.0778,-0.0723,-0.0699,-0.0625,-0.0549,-0.0392,-0.0306,-0.017,-0.0062,-0.0029,-0.0018,-0.004,-0.001,-0.0014,0.0025,0.0025,0.0024,0.0024,0.0024,-0.0847,-0.0842,-0.0772,-0.0737,-0.0635,-0.0553,-0.0354,-0.0272,-0.0128,-0.0071,-0.0039,0.0013,-0.0027,0.0016,0.0018,0.0019,0.0019,0.002,0.0021,-0.0925,-0.0915,-0.0902,-0.0881,-0.0821,-0.0678,-0.0598,-0.043,-0.0249,-0.0221,-0.0105,-0.0102,-0.0101,-0.0179,-0.0179,-0.0179,-0.0179,-0.0179,-0.0179,-0.1026,-0.1005,-0.105,-0.102,-0.1018,-0.0947,-0.0735,-0.0609,-0.0371,-0.0225,-0.0222,-0.0107,-0.01,-0.0109,-0.0182,-0.0182,-0.0182,-0.0181,-0.0181,-0.11,-0.1133,-0.1204,-0.1232,-0.1208,-0.1162,-0.0965,-0.0655,-0.0484,-0.0355,-0.018,-0.0179,-0.013,-0.0122,-0.013,-0.0204,-0.0204,-0.0204,-0.0204,-0.1188,-0.1196,-0.1322,-0.1377,-0.1372,-0.125,-0.106,-0.0714,-0.0374,-0.0199,-0.02,-0.0164,-0.0162,-0.0111,-0.0104,-0.011,-0.0179,-0.0179,-0.0179,-0.1265,-0.1305,-0.1392,-0.1436,-0.1438,-0.1313,-0.1104,-0.0703,-0.0264,-0.0181,-0.0221,-0.0197,-0.0142,-0.0141,-0.0057,-0.0048,-0.0054,0,0]}],[{"header":{"parameterUnit":"m.s-1","parameterCategory":2,"la1":30.2992,"la2":30.254,"lo1":-89.0895,"lo2":-89.0443,"dy":0.0025,"dx":0.0025,"nx":19,"ny":19,"refTime":"2026-04-10T03:00:00:Z","depth":"4","parameterNumber":2,"parameterNumberName":"U-component_of_CURRENTS"},"data":[0,0,0,-0.0601,-0.0602,-0.0671,-0.0671,-0.0751,-0.0752,0,0,0,0,0,0,0,0,0,0,0,-0.0576,-0.0576,-0.0601,-0.0603,-0.0671,-0.0671,-0.0751,-0.0752,0,0,0,0,0,0,0,0,0,0,0,-0.0576,-0.0576,-0.0577,-0.0603,-0.0671,-0.0671,-0.0751,-0.0702,0,0,0,0,0,0,0,0,0,0,-0.0637,-0.061,-0.0576,-0.0577,-0.0603,-0.067,-0.0671,-0.0699,-0.0705,-0.0718,0,-0.0728,0,-0.0742,-0.0757,-0.0757,0,0,0,-0.0604,-0.0605,-0.0628,-0.0577,-0.0604,-0.067,-0.064,-0.0703,-0.0709,-0.0725,-0.073,-0.0733,-0.0744,-0.0758,-0.0758,-0.0924,-0.0926,0,0,-0.0601,-0.0585,-0.0624,-0.0632,-0.0621,-0.0638,-0.0642,-0.0706,-0.071,-0.073,-0.0735,-0.0745,-0.0758,-0.0759,-0.0923,-0.0925,0,0,0,-0.0589,-0.0583,-0.0604,-0.0628,-0.0641,-0.064,-0.0645,-0.0707,-0.0715,-0.0736,-0.0746,-0.0759,-0.0759,-0.0922,-0.0924,-0.0948,0,0,0,-0.0586,-0.0576,-0.0602,-0.0593,-0.064,-0.0675,-0.0644,-0.0711,-0.0719,-0.0746,-0.0759,-0.076,-0.092,-0.0923,-0.0944,-0.1039,0,0,0,-0.0573,-0.0574,-0.0583,-0.0592,-0.0622,-0.0674,-0.0686,-0.0713,-0.0725,-0.0757,-0.076,-0.0919,-0.0922,-0.0941,-0.1031,-0.1159,0,0,0,-0.0554,-0.056,-0.0583,-0.06,-0.0621,-0.0689,-0.0686,-0.0732,-0.0762,-0.0759,-0.0921,-0.0924,-0.094,-0.1026,-0.1153,-0.0941,0,0,0,-0.0549,-0.0559,-0.0571,-0.0593,-0.0639,-0.0679,-0.0767,-0.0797,-0.0818,-0.0896,-0.09,-0.0945,-0.103,-0.1158,-0.1118,0,0,0,0,-0.0562,-0.0565,-0.0586,-0.0618,-0.0677,-0.0766,-0.0807,-0.0853,-0.0936,-0.085,-0.1,-0.1056,-0.1134,-0.0994,-0.0938,-0.0938,-0.0937,-0.0937,-0.0937,-0.05,-0.0546,-0.057,-0.0639,-0.0703,-0.083,-0.0937,-0.1022,-0.0988,-0.1048,-0.1111,-0.1287,-0.1137,-0.1109,-0.1109,-0.1109,-0.1109,-0.1109,-0.1109,-0.0463,-0.0463,-0.0556,-0.0594,-0.072,-0.0816,-0.103,-0.1079,-0.1305,-0.1213,-0.1284,-0.1072,-0.1113,-0.1112,-0.1112,-0.1111,-0.1111,-0.1111,-0.1111,-0.0385,-0.0394,-0.0438,-0.0505,-0.0641,-0.08,-0.1046,-0.1203,-0.1351,-0.1483,-0.136,-0.1374,-0.1335,-0.1492,-0.1493,-0.1494,-0.1495,-0.1496,-0.1496,-0.027,-0.0323,-0.0337,-0.042,-0.0497,-0.0686,-0.1059,-0.1265,-0.1442,-0.1467,-0.1515,-0.1419,-0.1406,-0.1363,-0.1511,-0.1509,-0.1507,-0.1505,-0.1504,-0.0164,-0.0182,-0.0198,-0.0251,-0.0473,-0.0622,-0.0952,-0.1301,-0.1535,-0.1615,-0.147,-0.1467,-0.1474,-0.1462,-0.1418,-0.159,-0.1588,-0.1586,0,-0.0067,-0.0083,-0.0151,-0.0267,-0.0445,-0.0637,-0.0941,-0.1209,-0.1403,-0.1332,-0.153,-0.1353,-0.1352,-0.1341,-0.1328,-0.1268,0,0,0,0.0006,-0.0019,-0.0086,-0.0242,-0.0459,-0.0773,-0.1041,-0.1124,-0.1319,-0.1475,-0.1534,-0.1548,-0.1482,-0.1556,-0.1564,-0.1549,-0.1481,0,0]},{"header":{"parameterUnit":"m.s-1","parameterCategory":2,"la1":30.2992,"la2":30.254,"lo1":-89.0895,"lo2":-89.0443,"dy":0.0025,"dx":0.0025,"nx":19,"ny":19,"refTime":"2026-04-10T03:00:00:Z","depth":"4","parameterNumber":3,"parameterNumberName":"V-component_of_CURRENTS"},"data":[0,0,0,0.0033,0.0033,0.0027,0.0027,0.0057,0.0057,0,0,0,0,0,0,0,0,0,0,0,0.0036,0.0036,0.0033,0.0033,0.0027,0.0027,0.0057,0.0057,0,0,0,0,0,0,0,0,0,0,0,0.0036,0.0036,0.0036,0.0033,0.0027,0.0027,0.0057,0.0052,0,0,0,0,0,0,0,0,0,0,0.0053,0.0049,0.0036,0.0036,0.0033,0.0027,0.0027,0.0052,0.0052,0.007,0,0.0068,0,0.0064,0.006,0.006,0,0,0,0.0034,0.0048,0.0048,0.0036,0.0033,0.0027,0.003,0.0052,0.0053,0.0072,0.0068,0.0069,0.0064,0.006,0.006,0.0069,0.0069,0,0,0.0034,0.0035,0.0047,0.0048,0.0031,0.003,0.003,0.0052,0.0053,0.0068,0.007,0.0065,0.0061,0.0061,0.0069,0.0069,0,0,0,0.0034,0.0036,0.0034,0.0047,0.0043,0.003,0.0029,0.0052,0.0052,0.007,0.0065,0.0061,0.0061,0.0069,0.0069,-0.0042,0,0,0,0.0035,0.0036,0.0034,0.0034,0.0043,0.0042,0.0029,0.005,0.0052,0.0065,0.0061,0.0062,0.007,0.0069,-0.0038,-0.0068,0,0,0,0.0036,0.0036,0.0035,0.0034,0.0031,0.0042,0.0042,0.005,0.005,0.006,0.0062,0.007,0.0069,-0.0035,-0.0063,-0.004,0,0,0,0.0038,-0.0005,0.0035,-0.0017,0.0031,-0.0021,0.0042,0.0017,0.0017,0.0061,0.007,0.0069,-0.0034,-0.006,-0.0038,-0.0053,0,0,0,-0.0026,-0.0012,-0.0048,-0.0013,-0.0096,-0.002,-0.0081,-0.0042,0.0022,0.0066,0.0066,-0.0039,-0.0063,-0.004,-0.0083,0,0,0,0,-0.0076,-0.0105,-0.0122,-0.0154,-0.016,-0.0163,-0.0119,-0.0082,-0.0041,0.0021,-0.0019,-0.0029,-0.0011,-0.0013,0.0066,0.0067,0.0067,0.0067,0.0067,-0.0155,-0.0176,-0.0252,-0.0276,-0.0295,-0.0261,-0.0242,-0.0173,-0.0116,-0.0101,-0.0105,-0.0143,-0.0151,-0.0096,-0.0097,-0.0097,-0.0098,-0.0098,-0.0098,-0.0264,-0.0308,-0.034,-0.0421,-0.0413,-0.044,-0.0361,-0.0302,-0.0222,-0.0179,-0.0156,-0.0114,-0.0108,-0.0106,-0.0105,-0.0104,-0.0103,-0.0102,-0.0102,-0.0305,-0.0333,-0.0386,-0.0486,-0.0551,-0.0531,-0.0526,-0.0435,-0.0312,-0.0293,-0.0228,-0.0183,-0.0186,-0.0268,-0.0268,-0.0268,-0.0268,-0.0268,-0.0268,-0.0306,-0.037,-0.0457,-0.0552,-0.0621,-0.0656,-0.0603,-0.0534,-0.041,-0.0327,-0.0302,-0.0198,-0.0192,-0.0192,-0.0269,-0.0269,-0.0269,-0.0269,-0.0269,-0.035,-0.0361,-0.0489,-0.0571,-0.073,-0.0743,-0.0711,-0.0567,-0.0479,-0.0375,-0.032,-0.0317,-0.0258,-0.025,-0.0249,-0.0346,-0.0347,-0.0347,0,-0.0347,-0.0371,-0.0538,-0.0684,-0.0791,-0.0806,-0.0717,-0.0626,-0.0462,-0.0459,-0.0451,-0.0395,-0.039,-0.033,-0.0323,-0.0328,0,0,0,-0.0362,-0.04,-0.0529,-0.0693,-0.0838,-0.0754,-0.0693,-0.0635,-0.0503,-0.0418,-0.0359,-0.0356,-0.0351,-0.0272,-0.0173,-0.0166,-0.0159,0,0]}]]